COSMOS 1275 DEB, 13808

Orbit data source: Space-Track

COSMOS 1275 DEB, 13808 is space debris in LEO originally from a launch on Thu, 04 Jun 1981 UTC launched from the Plesetsk Missile And Space Complex (PKMTR). Debris objects in space refer to the collection of defunct objects orbiting the Earth. Examples of debris include non-operational satellites, rocket bodies, and fragments generated from explosions, collisions, or faulty payload assembly.

Loading next visibility...
Identifier
13808, 1981-053HC
Orbit
LEO
Country
Flag of CISCIS
Related business
Manufacturer
Unknown
Mission
Spacecraft
Bus & Motor
Unknown
Mass
Unknown
Launch date (UTC)
1981-06-04 (44 years ago)
Launch vehicle
Unknown
Launch site
Plesetsk Missile And Space Complex (PKMTR)
Object type
Payload
Rocket body
Debris
Shape & HBR
Unknown shape, 0.1 m
Radar Cross Section
Small (<0.1 m²)

Expand to show TLE details & history
Last TLE update: 1 day ago

TLE from 1 day ago
0 COSMOS 1275 DEB
1 13808U 81053HC  25297.65206252  .00001891  00000-0  14185-2 0  9990
2 13808  83.0331 157.0713 0059728  84.1928 331.0540 13.93162395157480
Epoch: 2025-10-24T15:38Z
TLE epoch observation values (Epoch: 2025-10-24T15:38:58.201Z)
Latitude
54.41434°
Longitude
-101.18445°
Altitude
888.468 km
Speed
7.432 km/s
True Right ascension
11h 07m 24s
True Declination
54° 15' 16"
Sunlit
Object was in daylight at epoch
Visualization orbit readout
Latitude
Unknown
Longitude
Unknown
Altitude
Unknown
Speed
Unknown
Apparent Right ascension
Unknown
Apparent Declination
Unknown
Sunlit
N/A
Visualization observer readout
Local Sidereal Time
13:04:58
Azimuth
Unknown
Elevation
Unknown
Doppler factor
Unknown
Orbital elements
Apogee altitude
958.248 km
Perigee altitude
871.131 km
Semi-major axis
7,292.826 km
Eccentricity
0.00597
Inclination
83.0331°
RAAN
157.0713°
Arg. of periapsis
84.1928°
True anomaly
330.72057°
Mean anomaly
331.054°
Eccentric anomaly
330.8875°
Mean motion
3.48497 °/min
Orbital period
103.3 mins
BSTAR
0.0014185
Loading maneuver chart data...
Computing Atmospheric mass density...

Documentation

Showing up to 5 results
|